| time (UTC) | temp F | wind direction | speed MPH | gust MPH | rain 1hr in | rain 24hr in | rain mn in | humidity % | barometer mb |
| 20260504004024 | 91 | 240 | 7.0 | 8.0 | 0.00 | 0.00 | 0.00 | 32 | 1003.3 |
| 20260504003032 | 91 | 258 | 6.0 | 10.0 | 0.00 | 0.00 | 0.00 | 31 | 1003.3 |
| 20260504002028 | 92 | 263 | 6.0 | 9.0 | 0.00 | 0.00 | 0.00 | 30 | 1003.3 |
| 20260504001049 | 91 | 311 | 5.0 | 8.0 | 0.00 | 0.00 | 0.00 | 29 | 1004.1 |
| 20260504000037 | 92 | 277 | 4.0 | 7.0 | 0.00 | 0.00 | 0.00 | 31 | 1004.3 |
| 20260503235026 | 91 | 308 | 4.0 | 6.0 | 0.00 | 0.00 | 0.00 | 30 | 1003.3 |
| 20260503234034 | 91 | 278 | 4.0 | 6.0 | 0.00 | 0.00 | 0.00 | 30 | 1004.1 |
| 20260503233023 | 92 | 237 | 4.0 | 7.0 | 0.00 | 0.00 | 0.00 | 30 | 1004.3 |
| 20260503232144 | 92 | 287 | 5.0 | 8.0 | 0.00 | 0.00 | 0.00 | 30 | 1004.3 |
| 20260503231021 | 91 | 257 | 4.0 | 8.0 | 0.00 | 0.00 | 0.00 | 31 | 1004.3 |
| 20260503230028 | 91 | 267 | 5.0 | 9.0 | 0.00 | 0.00 | 0.00 | 31 | 1004.3 |
| 20260503225037 | 91 | 264 | 4.0 | 6.0 | 0.00 | 0.00 | 0.00 | 34 | 1004.3 |
| 20260503224025 | 90 | 282 | 4.0 | 7.0 | 0.00 | 0.00 | 0.00 | 33 | 1005.1 |
| 20260503223034 | 92 | 214 | 5.0 | 7.0 | 0.00 | 0.00 | 0.00 | 35 | 1005.3 |
| 20260503222025 | 90 | 282 | 3.0 | 6.0 | 0.00 | 0.00 | 0.00 | 37 | 1005.3 |
| 20260503221031 | 90 | 274 | 5.0 | 6.0 | 0.00 | 0.00 | 0.00 | 37 | 1005.3 |
| 20260503220039 | 90 | 265 | 5.0 | 8.0 | 0.00 | 0.00 | 0.00 | 38 | 1005.3 |
| 20260503215028 | 89 | 301 | 4.0 | 6.0 | 0.00 | 0.00 | 0.00 | 40 | 1005.3 |
| 20260503214036 | 89 | 260 | 5.0 | 7.0 | 0.00 | 0.00 | 0.00 | 40 | 1006.1 |
| 20260503213025 | 88 | 257 | 4.0 | 6.0 | 0.00 | 0.00 | 0.00 | 41 | 1006.3 |
| 20260503212028 | 87 | 260 | 6.0 | 7.0 | 0.00 | 0.00 | 0.00 | 42 | 1006.3 |
| 20260503211043 | 87 | 276 | 4.0 | 7.0 | 0.00 | 0.00 | 0.00 | 42 | 1006.3 |
| 20260503210050 | 86 | 278 | 5.0 | 7.0 | 0.00 | 0.00 | 0.00 | 45 | 1006.3 |
| 20260503205020 | 86 | 262 | 6.0 | 8.0 | 0.00 | 0.00 | 0.00 | 44 | 1006.3 |
| 20260503204028 | 85 | 281 | 4.0 | 6.0 | 0.00 | 0.00 | 0.00 | 46 | 1006.3 |
| 20260503203037 | 85 | 255 | 4.0 | 6.0 | 0.00 | 0.00 | 0.00 | 47 | 1006.3 |
| 20260503202028 | 84 | 256 | 5.0 | 8.0 | 0.00 | 0.00 | 0.00 | 47 | 1007.3 |
| 20260503201033 | 83 | 216 | 4.0 | 6.0 | 0.00 | 0.00 | 0.00 | 49 | 1007.3 |
| 20260503200023 | 83 | 248 | 3.0 | 6.0 | 0.00 | 0.00 | 0.00 | 51 | 1007.3 |
| 20260503195031 | 82 | 228 | 6.0 | 9.0 | 0.00 | 0.00 | 0.00 | 50 | 1007.3 |
| 20260503194039 | 81 | 350 | 3.0 | 4.0 | 0.00 | 0.00 | 0.00 | 53 | 1007.3 |
| 20260503193027 | 81 | 275 | 4.0 | 5.0 | 0.00 | 0.00 | 0.00 | 54 | 1007.3 |
| 20260503192028 | 81 | 270 | 4.0 | 6.0 | 0.00 | 0.00 | 0.00 | 53 | 1007.3 |
| 20260503191025 | 79 | 230 | 3.0 | 5.0 | 0.00 | 0.00 | 0.00 | 56 | 1008.1 |
| 20260503190033 | 79 | 251 | 4.0 | 6.0 | 0.00 | 0.00 | 0.00 | 56 | 1008.3 |
| 20260503185023 | 77 | 178 | 3.0 | 5.0 | 0.00 | 0.00 | 0.00 | 58 | 1008.3 |
| 20260503184050 | 79 | 258 | 5.0 | 7.0 | 0.00 | 0.00 | 0.00 | 55 | 1008.3 |
| 20260503183020 | 77 | 250 | 4.0 | 5.0 | 0.00 | 0.00 | 0.00 | 57 | 1008.3 |
| 20260503182029 | 77 | 215 | 3.0 | 6.0 | 0.00 | 0.00 | 0.00 | 59 | 1008.3 |
| 20260503181036 | 76 | 257 | 4.0 | 6.0 | 0.00 | 0.00 | 0.00 | 58 | 1008.3 |
| 20260503180025 | 75 | 249 | 4.0 | 7.0 | 0.00 | 0.00 | 0.00 | 59 | 1008.3 |
| 20260503175053 | 75 | 256 | 5.0 | 7.0 | 0.00 | 0.00 | 0.00 | 60 | 1008.2 |
| 20260503174042 | 75 | 253 | 5.0 | 9.0 | 0.00 | 0.01 | 0.00 | 60 | 1008.3 |
| 20260503173030 | 75 | 237 | 4.0 | 5.0 | 0.00 | 0.01 | 0.00 | 60 | 1008.3 |
| 20260503172021 | 75 | 222 | 3.0 | 5.0 | 0.00 | 0.01 | 0.00 | 60 | 1008.3 |
| 20260503171020 | 74 | 47 | 3.0 | 6.0 | 0.00 | 0.01 | 0.00 | 62 | 1008.3 |
| 20260503131023 | 50 | 0.0 | 0.0 | 0.00 | 0.01 | 0.00 | 99 | 1008.1 |